Warsaw, IN

4:48 AM EST on December 06, 2016 (GMT -0500)
Warsaw Municipal

Weather History for KASW - December, 2013

Change the Weather History Date:

Thursday, December 5, 2013

  Actual Average Record
Temperature  
Mean Temperature 42 °F -  
Max Temperature 59 °F 39 °F 65 °F (1982)
Min Temperature 26 °F 24 °F -2 °F (1976)
Degree Days  
Heating Degree Days 22    
Moisture  
Dew Point 28 °F    
Average Humidity 78    
Maximum Humidity 93    
Minimum Humidity 69    
Precipitation  
Precipitation 0.00 in - - ()
Sea Level Pressure  
Sea Level Pressure 29.97 in    
Wind  
Wind Speed 13 mph (West)    
Max Wind Speed 21 mph    
Max Gust Speed 28 mph    
Visibility 10 miles    
Events      
Averages and records for this station are not official NWS values.
T = Trace of Precipitation, MM = Missing Value Source: NWS Daily Summary

Daily Weather History Graph

Daily Weather History Graph

Search for Another Location

Airport or City:

Trip Planner

Search our weather history database for the weather conditions in past years. The results will help you decide how hot, cold, wet, or windy it might be!

Date:

Astronomy

Dec. 05, 2013 Rise Set
Actual Time 7:53 AM EST 5:14 PM EST
Civil Twilight 7:22 AM EST 5:45 PM EST
Nautical Twilight 6:48 AM EST 6:19 PM EST
Astronomical Twilight 6:15 AM EST 6:53 PM EST
Moon 10:12 AM EST (12/5) 8:35 PM EST (12/5)
Length of Visible Light 10h 22m
Length of Day
9h 20m
Waxing Crescent, 10% of the Moon is Illuminated
Dec 5
Waxing Crescent
Dec 9
First Quarter
Dec 17
Full
Dec 25
Last Quarter
Jan 1
New

Hourly Weather History & Observations

Time (EST) Temp. Windchill Dew Point Humidity Pressure Visibility Wind Dir Wind Speed Gust Speed Precip Events Conditions
12:15 AM 59.0 °F - 53.6 °F 82% 29.64 in 10.0 mi SSW 8.1 mph - N/A   Overcast
12:55 AM 59.0 °F - 53.6 °F 82% 29.65 in 10.0 mi SW 9.2 mph 21.9 mph N/A   Overcast
1:15 AM 59.0 °F - 53.6 °F 82% 29.66 in 10.0 mi SW 11.5 mph 24.2 mph N/A   Overcast
1:55 AM 55.4 °F - 50.0 °F 82% 29.68 in 10.0 mi WSW 19.6 mph 27.6 mph N/A   Unknown
2:15 AM 53.6 °F - 48.2 °F 82% 29.69 in 7.0 mi West 18.4 mph 25.3 mph N/A   Overcast
2:35 AM 51.8 °F - 48.2 °F 88% 29.70 in 7.0 mi West 20.7 mph 27.6 mph N/A   Overcast
2:55 AM 48.2 °F - 44.6 °F 87% 29.73 in 7.0 mi WSW 16.1 mph 26.5 mph N/A   Overcast
3:15 AM 46.4 °F 39.8 °F 42.8 °F 87% 29.74 in 7.0 mi West 16.1 mph 24.2 mph N/A   Overcast
3:35 AM 44.6 °F 37.2 °F 41.0 °F 87% 29.75 in 10.0 mi West 17.3 mph 24.2 mph N/A   Overcast
3:55 AM 44.6 °F 36.6 °F 37.4 °F 76% 29.76 in 10.0 mi West 19.6 mph 24.2 mph N/A   Overcast
4:15 AM 42.8 °F 35.8 °F 37.4 °F 81% 29.78 in 10.0 mi WSW 13.8 mph 18.4 mph N/A   Overcast
4:35 AM 42.8 °F 36.6 °F 35.6 °F 76% 29.78 in 10.0 mi West 11.5 mph 18.4 mph N/A   Overcast
4:55 AM 41.0 °F 32.8 °F 35.6 °F 81% 29.79 in 10.0 mi West 16.1 mph 20.7 mph N/A   Overcast
5:15 AM 39.2 °F 29.8 °F 33.8 °F 81% 29.80 in 10.0 mi WSW 18.4 mph 25.3 mph N/A   Overcast
5:35 AM 39.2 °F 30.2 °F 33.8 °F 81% 29.81 in 10.0 mi West 17.3 mph - N/A   Overcast
5:55 AM 39.2 °F 31.2 °F 33.8 °F 81% 29.82 in 10.0 mi West 13.8 mph - N/A   Overcast
6:15 AM 37.4 °F 28.2 °F 33.8 °F 87% 29.83 in 10.0 mi West 16.1 mph 21.9 mph N/A   Overcast
6:35 AM 37.4 °F 28.9 °F 32.0 °F 81% 29.83 in 10.0 mi West 13.8 mph 17.3 mph N/A   Overcast
6:55 AM 35.6 °F 27.5 °F 32.0 °F 87% 29.84 in 10.0 mi WNW 11.5 mph - N/A   Overcast
7:15 AM 35.6 °F 28.6 °F 32.0 °F 87% 29.85 in 10.0 mi West 9.2 mph 20.7 mph N/A   Overcast
7:35 AM 35.6 °F 27.1 °F 32.0 °F 87% 29.87 in 10.0 mi West 12.7 mph 17.3 mph N/A   Overcast
7:55 AM 33.8 °F 25.3 °F 32.0 °F 93% 29.89 in 10.0 mi West 11.5 mph 16.1 mph N/A   Overcast
8:15 AM 33.8 °F 27.0 °F 32.0 °F 93% 29.90 in 10.0 mi WSW 8.1 mph 20.7 mph N/A   Overcast
8:35 AM 33.8 °F 23.5 °F 30.2 °F 87% 29.92 in 10.0 mi West 16.1 mph 20.7 mph N/A   Overcast
8:55 AM 32.0 °F 21.6 °F 28.4 °F 87% 29.93 in 10.0 mi West 15.0 mph 23.0 mph N/A   Mostly Cloudy
9:15 AM 32.0 °F 21.6 °F 28.4 °F 87% 29.94 in 10.0 mi West 15.0 mph - N/A   Mostly Cloudy
9:35 AM 32.0 °F 21.6 °F 28.4 °F 87% 29.95 in 10.0 mi West 15.0 mph 21.9 mph N/A   Scattered Clouds
9:55 AM 32.0 °F 21.2 °F 28.4 °F 87% 29.95 in 10.0 mi West 16.1 mph 21.9 mph N/A   Mostly Cloudy
10:15 AM 32.0 °F 22.5 °F 28.4 °F 87% 29.96 in 10.0 mi West 12.7 mph - N/A   Mostly Cloudy
10:35 AM 32.0 °F 21.6 °F 26.6 °F 80% 29.97 in 10.0 mi West 15.0 mph 23.0 mph N/A   Mostly Cloudy
10:55 AM 32.0 °F 20.5 °F 26.6 °F 80% 29.98 in 10.0 mi West 18.4 mph 25.3 mph N/A   Mostly Cloudy
11:15 AM 32.0 °F 21.6 °F 26.6 °F 80% 29.99 in 10.0 mi West 15.0 mph - N/A   Mostly Cloudy
11:35 AM 32.0 °F 21.6 °F 26.6 °F 80% 30.00 in 10.0 mi West 15.0 mph 20.7 mph N/A   Mostly Cloudy
11:55 AM 32.0 °F 20.5 °F 26.6 °F 80% 30.00 in 10.0 mi West 18.4 mph 21.9 mph N/A   Overcast
12:15 PM 32.0 °F 21.6 °F 26.6 °F 80% 29.99 in 10.0 mi West 15.0 mph 19.6 mph N/A   Mostly Cloudy
12:35 PM 32.0 °F 20.8 °F 24.8 °F 75% 30.00 in 10.0 mi WNW 17.3 mph 23.0 mph N/A   Mostly Cloudy
12:55 PM 32.0 °F 22.1 °F 24.8 °F 75% 30.00 in 10.0 mi West 13.8 mph - N/A   Scattered Clouds
1:15 PM 32.0 °F 21.6 °F 23.0 °F 69% 30.00 in 10.0 mi WNW 15.0 mph 18.4 mph N/A   Mostly Cloudy
1:35 PM 32.0 °F 22.5 °F 24.8 °F 75% 30.00 in 10.0 mi West 12.7 mph 18.4 mph N/A   Mostly Cloudy
1:55 PM 32.0 °F 22.1 °F 23.0 °F 69% 29.99 in 10.0 mi West 13.8 mph - N/A   Scattered Clouds
2:15 PM 32.0 °F 22.1 °F 23.0 °F 69% 30.01 in 10.0 mi West 13.8 mph 17.3 mph N/A   Mostly Cloudy
2:35 PM 32.0 °F 22.5 °F 24.8 °F 75% 30.00 in 10.0 mi West 12.7 mph - N/A   Mostly Cloudy
2:55 PM 32.0 °F 22.5 °F 23.0 °F 69% 30.02 in 10.0 mi West 12.7 mph 17.3 mph N/A   Mostly Cloudy
3:15 PM 32.0 °F 22.5 °F 23.0 °F 69% 30.03 in 10.0 mi West 12.7 mph - N/A   Mostly Cloudy
3:35 PM 32.0 °F 22.5 °F 23.0 °F 69% 30.04 in 10.0 mi West 12.7 mph - N/A   Mostly Cloudy
3:55 PM 32.0 °F 22.5 °F 23.0 °F 69% 30.05 in 10.0 mi West 12.7 mph - N/A   Scattered Clouds
4:15 PM 30.2 °F 20.2 °F 23.0 °F 75% 30.05 in 10.0 mi West 12.7 mph 18.4 mph N/A   Scattered Clouds
4:35 PM 30.2 °F 20.8 °F 23.0 °F 75% 30.08 in 10.0 mi West 11.5 mph - N/A   Scattered Clouds
4:55 PM 30.2 °F 21.9 °F 21.2 °F 69% 30.08 in 10.0 mi West 9.2 mph 16.1 mph N/A   Clear
5:15 PM 30.2 °F 21.9 °F 21.2 °F 69% 30.10 in 10.0 mi West 9.2 mph - N/A   Clear
5:35 PM 28.4 °F 19.1 °F 21.2 °F 74% 30.08 in 10.0 mi West 10.4 mph - N/A   Scattered Clouds
5:55 PM 28.4 °F 19.7 °F 21.2 °F 74% 30.08 in 10.0 mi West 9.2 mph - N/A   Clear
6:15 PM 28.4 °F 21.2 °F 21.2 °F 74% 30.09 in 10.0 mi West 6.9 mph - N/A   Scattered Clouds
6:35 PM 28.4 °F 18.5 °F 21.2 °F 74% 30.12 in 10.0 mi West 11.5 mph - N/A   Mostly Cloudy
6:55 PM 28.4 °F 19.7 °F 21.2 °F 74% 30.12 in 10.0 mi West 9.2 mph - N/A   Overcast
7:15 PM 28.4 °F 18.0 °F 21.2 °F 74% 30.15 in 10.0 mi West 12.7 mph - N/A   Overcast
7:35 PM 28.4 °F 19.1 °F 21.2 °F 74% 30.16 in 10.0 mi West 10.4 mph 16.1 mph N/A   Overcast
7:55 PM 28.4 °F 19.7 °F 19.4 °F 69% 30.14 in 10.0 mi West 9.2 mph - N/A   Overcast
8:15 PM 28.4 °F 19.1 °F 19.4 °F 69% 30.14 in 10.0 mi West 10.4 mph - N/A   Overcast
8:35 PM 28.4 °F 19.1 °F 19.4 °F 69% 30.15 in 10.0 mi West 10.4 mph - N/A   Overcast
8:55 PM 28.4 °F 19.1 °F 19.4 °F 69% 30.16 in 10.0 mi West 10.4 mph - N/A   Overcast
9:15 PM 28.4 °F 19.7 °F 19.4 °F 69% 30.18 in 10.0 mi WNW 9.2 mph - N/A   Overcast
9:35 PM 26.6 °F 17.5 °F 19.4 °F 74% 30.16 in 10.0 mi WNW 9.2 mph - N/A   Mostly Cloudy
9:55 PM 26.6 °F 17.5 °F 19.4 °F 74% 30.17 in 10.0 mi WNW 9.2 mph - N/A   Scattered Clouds
10:15 PM 26.6 °F 16.8 °F 19.4 °F 74% 30.19 in 10.0 mi West 10.4 mph - N/A   Mostly Cloudy
10:35 PM 26.6 °F 16.8 °F 19.4 °F 74% 30.17 in 10.0 mi WNW 10.4 mph - N/A   Overcast
10:55 PM 26.6 °F 16.2 °F 19.4 °F 74% 30.16 in 10.0 mi NW 11.5 mph - N/A   Mostly Cloudy
11:15 PM 26.6 °F 16.8 °F 19.4 °F 74% 30.17 in 10.0 mi WNW 10.4 mph - N/A   Scattered Clouds
11:35 PM 26.6 °F 18.2 °F 19.4 °F 74% 30.19 in 10.0 mi WNW 8.1 mph - N/A   Mostly Cloudy
11:55 PM 26.6 °F 17.5 °F 19.4 °F 74% 30.20 in 10.0 mi WNW 9.2 mph - N/A   Overcast